{"data":{"norad_id":65683,"intl_designator":"2025-212H","name":"STARLINK-34886","alt_names":[],"object_type":"PAYLOAD","status":"ACTIVE","operator":null,"country":"US","launch_date":"2025-09-21","launch_site_code":"AFETR","launch_vehicle":null,"mission":null,"orbit_class":"UNKNOWN","rcs_meters":null,"size_class":null,"mass_kg":null,"dimensions":null,"purposes":["comms"],"wikipedia_slug":null,"has_3d_model":false,"image_url":null,"decayed_at":null,"tle_current":{"epoch":"2026-09-20T06:17:02.857632Z","epoch_age_seconds":129374,"freshness":"FRESH","line1":"1 65683U 25212H   26263.26183863  .00022976  00000+0  74894-3 0  9996","line2":"2 65683  53.1572 160.4733 0000877  89.8660 270.2442 15.31740340 57007","mean_motion":15.3174034,"eccentricity":8.77e-5,"inclination_deg":53.1572,"raan_deg":160.4733,"arg_perigee_deg":89.866,"mean_anomaly_deg":270.2442,"bstar":0.00074894,"rev_number":5700,"period_min":94.010712024468,"perigee_km":470.01911045724,"apogee_km":471.22038239056,"semimajor_km":6848.7567464239,"source":"CELESTRAK","updated_at":"2026-09-21T09:00:35.685930Z"}}}